Year,Month,Day,Hour,Minute,Value (Times are PST for temperature in C)
2008,06,29,00,00,21.30
2008,06,29,00,01,21.30
2008,06,29,00,02,21.20
2008,06,29,00,03,21.20
2008,06,29,00,04,21.20
2008,06,29,00,05,21.20
2008,06,29,00,06,21.20
2008,06,29,00,07,21.20
2008,06,29,00,08,21.20
2008,06,29,00,09,21.20
2008,06,29,00,10,21.20
2008,06,29,00,11,21.20
2008,06,29,00,12,21.20
2008,06,29,00,13,21.20
2008,06,29,00,14,21.20
2008,06,29,00,15,21.20
2008,06,29,00,16,21.20
2008,06,29,00,17,21.20
2008,06,29,00,18,21.20
2008,06,29,00,19,21.20
2008,06,29,00,20,21.20
2008,06,29,00,21,21.20
2008,06,29,00,22,21.20
2008,06,29,00,23,21.20
2008,06,29,00,24,21.20
2008,06,29,00,25,21.20
2008,06,29,00,26,21.20
2008,06,29,00,27,21.20
2008,06,29,00,28,21.20
2008,06,29,00,29,21.20
2008,06,29,00,30,21.30
2008,06,29,00,31,21.30
2008,06,29,00,32,21.30
2008,06,29,00,33,21.30
2008,06,29,00,34,21.30
2008,06,29,00,35,21.30
2008,06,29,00,36,21.30
2008,06,29,00,37,21.30
2008,06,29,00,38,21.30
2008,06,29,00,39,21.30
2008,06,29,00,40,21.30
2008,06,29,00,41,21.30
2008,06,29,00,42,21.30
2008,06,29,00,43,21.30
2008,06,29,00,44,21.30
2008,06,29,00,45,21.30
2008,06,29,00,46,21.30
2008,06,29,00,47,21.30
2008,06,29,00,48,21.30
2008,06,29,00,49,21.30
2008,06,29,00,50,21.30
2008,06,29,00,51,21.30
2008,06,29,00,52,21.30
2008,06,29,00,53,21.30
2008,06,29,00,54,21.30
2008,06,29,00,55,21.30
2008,06,29,00,56,21.30
2008,06,29,00,57,21.20
2008,06,29,00,58,21.20
2008,06,29,00,59,21.10
2008,06,29,01,00,21.00
2008,06,29,01,01,21.00
2008,06,29,01,02,20.90
2008,06,29,01,03,20.80
2008,06,29,01,04,20.70
2008,06,29,01,05,20.70
2008,06,29,01,06,20.60
2008,06,29,01,07,20.50
2008,06,29,01,08,20.50
2008,06,29,01,09,20.40
2008,06,29,01,10,20.40
2008,06,29,01,11,20.30
2008,06,29,01,12,20.30
2008,06,29,01,13,20.30
2008,06,29,01,14,20.30
2008,06,29,01,15,20.20
2008,06,29,01,16,20.20
2008,06,29,01,17,20.20
2008,06,29,01,18,20.20
2008,06,29,01,19,20.20
2008,06,29,01,20,20.20
2008,06,29,01,21,20.20
2008,06,29,01,22,20.20
2008,06,29,01,23,20.20
2008,06,29,01,24,20.20
2008,06,29,01,25,20.20
2008,06,29,01,26,20.20
2008,06,29,01,27,20.20
2008,06,29,01,28,20.20
2008,06,29,01,29,20.20
2008,06,29,01,30,20.20
2008,06,29,01,31,20.20
2008,06,29,01,32,20.20
2008,06,29,01,33,20.20
2008,06,29,01,34,20.20
2008,06,29,01,35,20.20
2008,06,29,01,36,20.20
2008,06,29,01,37,20.20
2008,06,29,01,38,20.20
2008,06,29,01,39,20.20
2008,06,29,01,40,20.20
2008,06,29,01,41,20.20
2008,06,29,01,42,20.20
2008,06,29,01,43,20.20
2008,06,29,01,44,20.20
2008,06,29,01,45,20.20
2008,06,29,01,46,20.20
2008,06,29,01,47,20.20
2008,06,29,01,48,20.20
2008,06,29,01,49,20.20
2008,06,29,01,50,20.30
2008,06,29,01,51,20.30
2008,06,29,01,52,20.30
2008,06,29,01,53,20.30
2008,06,29,01,54,20.40
2008,06,29,01,55,20.40
2008,06,29,01,56,20.50
2008,06,29,01,57,20.50
2008,06,29,01,58,20.50
2008,06,29,01,59,20.50
2008,06,29,02,00,20.50
2008,06,29,02,01,20.50
2008,06,29,02,02,20.50
2008,06,29,02,03,20.40
2008,06,29,02,04,20.40
2008,06,29,02,05,20.40
2008,06,29,02,06,20.30
2008,06,29,02,07,20.30
2008,06,29,02,08,20.30
2008,06,29,02,09,20.20
2008,06,29,02,10,20.20
2008,06,29,02,11,20.20
2008,06,29,02,12,20.20
2008,06,29,02,13,20.10
2008,06,29,02,14,20.00
2008,06,29,02,15,19.90
2008,06,29,02,16,19.80
2008,06,29,02,17,19.80
2008,06,29,02,18,19.70
2008,06,29,02,19,19.70
2008,06,29,02,20,19.60
2008,06,29,02,21,19.60
2008,06,29,02,22,19.60
2008,06,29,02,23,19.50
2008,06,29,02,24,19.50
2008,06,29,02,25,19.50
2008,06,29,02,26,19.50
2008,06,29,02,27,19.50
2008,06,29,02,28,19.50
2008,06,29,02,29,19.50
2008,06,29,02,30,19.50
2008,06,29,02,31,19.40
2008,06,29,02,32,19.40
2008,06,29,02,33,19.30
2008,06,29,02,34,19.30
2008,06,29,02,35,19.20
2008,06,29,02,36,19.20
2008,06,29,02,37,19.20
2008,06,29,02,38,19.20
2008,06,29,02,39,19.10
2008,06,29,02,40,19.10
2008,06,29,02,41,19.10
2008,06,29,02,42,19.10
2008,06,29,02,43,19.10
2008,06,29,02,44,19.10
2008,06,29,02,45,19.00
2008,06,29,02,46,18.90
2008,06,29,02,47,18.90
2008,06,29,02,48,18.90
2008,06,29,02,49,18.90
2008,06,29,02,50,18.90
2008,06,29,02,51,18.90
2008,06,29,02,52,18.90
2008,06,29,02,53,18.80
2008,06,29,02,54,18.80
2008,06,29,02,55,18.70
2008,06,29,02,56,18.60
2008,06,29,02,57,18.50
2008,06,29,02,58,18.50
2008,06,29,02,59,18.40
2008,06,29,03,00,18.30
2008,06,29,03,01,18.20
2008,06,29,03,02,18.20
2008,06,29,03,03,18.20
2008,06,29,03,04,18.20
2008,06,29,03,05,18.20
2008,06,29,03,06,18.20
2008,06,29,03,07,18.20
2008,06,29,03,08,18.20
2008,06,29,03,09,18.20
2008,06,29,03,10,18.20
2008,06,29,03,11,18.20
2008,06,29,03,12,18.20
2008,06,29,03,13,18.20
2008,06,29,03,14,18.20
2008,06,29,03,15,18.20
2008,06,29,03,16,18.20
2008,06,29,03,17,18.20
2008,06,29,03,18,18.20
2008,06,29,03,19,18.20
2008,06,29,03,20,18.20
2008,06,29,03,21,18.30
2008,06,29,03,22,18.30
2008,06,29,03,23,18.30
2008,06,29,03,24,18.30
2008,06,29,03,25,18.40
2008,06,29,03,26,18.40
2008,06,29,03,27,18.40
2008,06,29,03,28,18.40
2008,06,29,03,29,18.40
2008,06,29,03,30,18.40
2008,06,29,03,31,18.40
2008,06,29,03,32,18.40
2008,06,29,03,33,18.40
2008,06,29,03,34,18.40
2008,06,29,03,35,18.40
2008,06,29,03,36,18.40
2008,06,29,03,37,18.40
2008,06,29,03,38,18.50
2008,06,29,03,39,18.50
2008,06,29,03,40,18.50
2008,06,29,03,41,18.50
2008,06,29,03,42,18.50
2008,06,29,03,43,18.50
2008,06,29,03,44,18.50
2008,06,29,03,45,18.50
2008,06,29,03,46,18.50
2008,06,29,03,47,18.50
2008,06,29,03,48,18.50
2008,06,29,03,49,18.50
2008,06,29,03,50,18.50
2008,06,29,03,51,18.50
2008,06,29,03,52,18.50
2008,06,29,03,53,18.50
2008,06,29,03,54,18.50
2008,06,29,03,55,18.40
2008,06,29,03,56,18.40
2008,06,29,03,57,18.40
2008,06,29,03,58,18.40
2008,06,29,03,59,18.40
2008,06,29,04,00,18.40
2008,06,29,04,01,18.40
2008,06,29,04,02,18.40
2008,06,29,04,03,18.40
2008,06,29,04,04,18.40
2008,06,29,04,05,18.40
2008,06,29,04,06,18.40
2008,06,29,04,07,18.40
2008,06,29,04,08,18.40
2008,06,29,04,09,18.40
2008,06,29,04,10,18.40
2008,06,29,04,11,18.40
2008,06,29,04,12,18.40
2008,06,29,04,13,18.40
2008,06,29,04,14,18.30
2008,06,29,04,15,18.30
2008,06,29,04,16,18.30
2008,06,29,04,17,18.30
2008,06,29,04,18,18.30
2008,06,29,04,19,18.30
2008,06,29,04,20,18.30
2008,06,29,04,21,18.30
2008,06,29,04,22,18.30
2008,06,29,04,23,18.30
2008,06,29,04,24,18.30
2008,06,29,04,25,18.30
2008,06,29,04,26,18.20
2008,06,29,04,27,18.20
2008,06,29,04,28,18.20
2008,06,29,04,29,18.20
2008,06,29,04,30,18.20
2008,06,29,04,31,18.20
2008,06,29,04,32,18.20
2008,06,29,04,33,18.20
2008,06,29,04,34,18.20
2008,06,29,04,35,18.20
2008,06,29,04,36,18.20
2008,06,29,04,37,18.20
2008,06,29,04,38,18.20
2008,06,29,04,39,18.20
2008,06,29,04,40,18.20
2008,06,29,04,41,18.20
2008,06,29,04,42,18.20
2008,06,29,04,43,18.20
2008,06,29,04,44,18.20
2008,06,29,04,45,18.20
2008,06,29,04,46,18.10
2008,06,29,04,47,18.10
2008,06,29,04,48,18.10
2008,06,29,04,49,18.10
2008,06,29,04,50,18.00
2008,06,29,04,51,17.90
2008,06,29,04,52,17.90
2008,06,29,04,53,17.90
2008,06,29,04,54,17.90
2008,06,29,04,55,17.90
2008,06,29,04,56,17.80
2008,06,29,04,57,17.80
2008,06,29,04,58,17.80
2008,06,29,04,59,17.80
2008,06,29,05,00,17.80
2008,06,29,05,01,17.80
2008,06,29,05,02,17.80
2008,06,29,05,03,17.80
2008,06,29,05,04,17.80
2008,06,29,05,05,17.80
2008,06,29,05,06,17.80
2008,06,29,05,07,17.80
2008,06,29,05,08,17.80
2008,06,29,05,09,17.80
2008,06,29,05,10,17.80
2008,06,29,05,11,17.90
2008,06,29,05,12,17.90
2008,06,29,05,13,17.90
2008,06,29,05,14,17.90
2008,06,29,05,15,17.90
2008,06,29,05,16,17.90
2008,06,29,05,17,17.90
2008,06,29,05,18,18.00
2008,06,29,05,19,18.10
2008,06,29,05,20,18.10
2008,06,29,05,21,18.10
2008,06,29,05,22,18.10
2008,06,29,05,23,18.20
2008,06,29,05,24,18.20
2008,06,29,05,25,18.20
2008,06,29,05,26,18.20
2008,06,29,05,27,18.20
2008,06,29,05,28,18.10
2008,06,29,05,29,18.10
2008,06,29,05,30,18.10
2008,06,29,05,31,18.10
2008,06,29,05,32,18.10
2008,06,29,05,33,18.10
2008,06,29,05,34,18.10
2008,06,29,05,35,18.10
2008,06,29,05,36,18.10
2008,06,29,05,37,18.10
2008,06,29,05,38,18.00
2008,06,29,05,39,17.90
2008,06,29,05,40,17.90
2008,06,29,05,41,17.90
2008,06,29,05,42,17.90
2008,06,29,05,43,17.90
2008,06,29,05,44,17.90
2008,06,29,05,45,17.90
2008,06,29,05,46,17.90
2008,06,29,05,47,17.90
2008,06,29,05,48,17.90
2008,06,29,05,49,17.90
2008,06,29,05,50,17.90
2008,06,29,05,51,17.90
2008,06,29,05,52,17.90
2008,06,29,05,53,18.00
2008,06,29,05,54,18.10
2008,06,29,05,55,18.10
2008,06,29,05,56,18.10
2008,06,29,05,57,18.10
2008,06,29,05,58,18.10
2008,06,29,05,59,18.20
2008,06,29,06,00,18.20
2008,06,29,06,01,18.20
2008,06,29,06,02,18.20
2008,06,29,06,03,18.20
2008,06,29,06,04,18.20
2008,06,29,06,05,18.20
2008,06,29,06,06,18.20
2008,06,29,06,07,18.30
2008,06,29,06,08,18.30
2008,06,29,06,09,18.30
2008,06,29,06,10,18.30
2008,06,29,06,11,18.30
2008,06,29,06,12,18.30
2008,06,29,06,13,18.30
2008,06,29,06,14,18.30
2008,06,29,06,15,18.30
2008,06,29,06,16,18.30
2008,06,29,06,17,18.40
2008,06,29,06,18,18.40
2008,06,29,06,19,18.40
2008,06,29,06,20,18.40
2008,06,29,06,21,18.50
2008,06,29,06,22,18.50
2008,06,29,06,23,18.50
2008,06,29,06,24,18.60
2008,06,29,06,25,18.60
2008,06,29,06,26,18.60
2008,06,29,06,27,18.70
2008,06,29,06,28,18.70
2008,06,29,06,29,18.80
2008,06,29,06,30,18.80
2008,06,29,06,31,18.90
2008,06,29,06,32,18.90
2008,06,29,06,33,18.90
2008,06,29,06,34,19.10
2008,06,29,06,35,19.10
2008,06,29,06,36,19.10
2008,06,29,06,37,19.20
2008,06,29,06,38,19.30
2008,06,29,06,39,19.30
2008,06,29,06,40,19.30
2008,06,29,06,41,19.30
2008,06,29,06,42,19.30
2008,06,29,06,43,19.40
2008,06,29,06,44,19.40
2008,06,29,06,45,19.40
2008,06,29,06,46,19.40
2008,06,29,06,47,19.40
2008,06,29,06,48,19.40
2008,06,29,06,49,19.50
2008,06,29,06,50,19.50
2008,06,29,06,51,19.50
2008,06,29,06,52,19.50
2008,06,29,06,53,19.50
2008,06,29,06,54,19.50
2008,06,29,06,55,19.40
2008,06,29,06,56,19.30
2008,06,29,06,57,19.10
2008,06,29,06,58,19.00
2008,06,29,06,59,18.80
2008,06,29,07,00,18.70
2008,06,29,07,01,18.60
2008,06,29,07,02,18.50
2008,06,29,07,03,18.50
2008,06,29,07,04,18.50
2008,06,29,07,05,18.40
2008,06,29,07,06,18.40
2008,06,29,07,07,18.40
2008,06,29,07,08,18.40
2008,06,29,07,09,18.40
2008,06,29,07,10,18.40
2008,06,29,07,11,18.40
2008,06,29,07,12,18.40
2008,06,29,07,13,18.30
2008,06,29,07,14,18.30
2008,06,29,07,15,18.20
2008,06,29,07,16,18.10
2008,06,29,07,17,18.10
2008,06,29,07,18,18.00
2008,06,29,07,19,17.90
2008,06,29,07,20,17.90
2008,06,29,07,21,17.90
2008,06,29,07,22,17.90
2008,06,29,07,23,17.80
2008,06,29,07,24,17.80
2008,06,29,07,25,17.80
2008,06,29,07,26,17.70
2008,06,29,07,27,17.70
2008,06,29,07,28,17.70
2008,06,29,07,29,17.70
2008,06,29,07,30,17.70
2008,06,29,07,31,17.60
2008,06,29,07,32,17.40
2008,06,29,07,33,17.30
2008,06,29,07,34,17.30
2008,06,29,07,35,17.30
2008,06,29,07,36,17.30
2008,06,29,07,37,17.30
2008,06,29,07,38,17.20
2008,06,29,07,39,17.10
2008,06,29,07,40,17.00
2008,06,29,07,41,17.00
2008,06,29,07,42,17.00
2008,06,29,07,43,17.00
2008,06,29,07,44,17.00
2008,06,29,07,45,17.10
2008,06,29,07,46,17.10
2008,06,29,07,47,17.20
2008,06,29,07,48,17.20
2008,06,29,07,49,17.30
2008,06,29,07,50,17.30
2008,06,29,07,51,17.30
2008,06,29,07,52,17.30
2008,06,29,07,53,17.30
2008,06,29,07,54,17.30
2008,06,29,07,55,17.40
2008,06,29,07,56,17.50
2008,06,29,07,57,17.50
2008,06,29,07,58,17.60
2008,06,29,07,59,17.70
2008,06,29,08,00,17.70
2008,06,29,08,01,17.70
2008,06,29,08,02,17.80
2008,06,29,08,03,17.80
2008,06,29,08,04,17.80
2008,06,29,08,05,17.90
2008,06,29,08,06,17.90
2008,06,29,08,07,17.90
2008,06,29,08,08,17.90
2008,06,29,08,09,17.90
2008,06,29,08,10,18.10
2008,06,29,08,11,18.10
2008,06,29,08,12,18.20
2008,06,29,08,13,18.30
2008,06,29,08,14,18.30
2008,06,29,08,15,18.40
2008,06,29,08,16,18.50
2008,06,29,08,17,18.70
2008,06,29,08,18,18.80
2008,06,29,08,19,18.90
2008,06,29,08,20,19.10
2008,06,29,08,21,19.10
2008,06,29,08,22,19.30
2008,06,29,08,23,19.40
2008,06,29,08,24,19.50
2008,06,29,08,25,19.60
2008,06,29,08,26,19.70
2008,06,29,08,27,19.70
2008,06,29,08,28,19.70
2008,06,29,08,29,19.70
2008,06,29,08,30,19.80
2008,06,29,08,31,19.90
2008,06,29,08,32,20.00
2008,06,29,08,33,20.10
2008,06,29,08,34,20.20
2008,06,29,08,35,20.20
2008,06,29,08,36,20.30
2008,06,29,08,37,20.40
2008,06,29,08,38,20.50
2008,06,29,08,39,20.60
2008,06,29,08,40,20.80
2008,06,29,08,41,20.80
2008,06,29,08,42,21.00
2008,06,29,08,43,21.10
2008,06,29,08,44,21.20
2008,06,29,08,45,21.30
2008,06,29,08,46,21.40
2008,06,29,08,47,21.50
2008,06,29,08,48,21.60
2008,06,29,08,49,21.70
2008,06,29,08,50,21.80
2008,06,29,08,51,22.00
2008,06,29,08,52,22.10
2008,06,29,08,53,22.30
2008,06,29,08,54,22.40
2008,06,29,08,55,22.50
2008,06,29,08,56,22.60
2008,06,29,08,57,22.70
2008,06,29,08,58,22.70
2008,06,29,08,59,22.70
2008,06,29,09,00,22.60
2008,06,29,09,01,22.60
2008,06,29,09,02,22.60
2008,06,29,09,03,22.80
2008,06,29,09,04,22.80
2008,06,29,09,05,22.90
2008,06,29,09,06,22.90
2008,06,29,09,07,23.00
2008,06,29,09,08,23.10
2008,06,29,09,09,23.10
2008,06,29,09,10,23.10
2008,06,29,09,11,23.10
2008,06,29,09,12,23.10
2008,06,29,09,13,23.10
2008,06,29,09,14,23.10
2008,06,29,09,15,23.20
2008,06,29,09,16,23.30
2008,06,29,09,17,23.20
2008,06,29,09,18,23.20
2008,06,29,09,19,23.20
2008,06,29,09,20,23.30
2008,06,29,09,21,23.30
2008,06,29,09,22,23.30
2008,06,29,09,23,23.30
2008,06,29,09,24,23.30
2008,06,29,09,25,23.30
2008,06,29,09,26,23.30
2008,06,29,09,27,23.30
2008,06,29,09,28,23.30
2008,06,29,09,29,23.30
2008,06,29,09,30,23.40
2008,06,29,09,31,23.40
2008,06,29,09,32,23.40
2008,06,29,09,33,23.40
2008,06,29,09,34,23.40
2008,06,29,09,35,23.50
2008,06,29,09,36,23.50
2008,06,29,09,37,23.40
2008,06,29,09,38,23.50
2008,06,29,09,39,23.60
2008,06,29,09,40,23.60
2008,06,29,09,41,23.60
2008,06,29,09,42,23.70
2008,06,29,09,43,23.70
2008,06,29,09,44,23.70
2008,06,29,09,45,23.80
2008,06,29,09,46,23.90
2008,06,29,09,47,24.00
2008,06,29,09,48,24.10
2008,06,29,09,49,24.20
2008,06,29,09,50,24.20
2008,06,29,09,51,24.30
2008,06,29,09,52,24.30
2008,06,29,09,53,24.30
2008,06,29,09,54,24.30
2008,06,29,09,55,24.30
2008,06,29,09,56,24.30
2008,06,29,09,57,24.30
2008,06,29,09,58,24.40
2008,06,29,09,59,24.50
2008,06,29,10,00,24.50
2008,06,29,10,01,24.50
2008,06,29,10,02,24.40
2008,06,29,10,03,24.40
2008,06,29,10,04,24.30
2008,06,29,10,05,24.30
2008,06,29,10,06,24.30
2008,06,29,10,07,24.30
2008,06,29,10,08,24.20
2008,06,29,10,09,24.20
2008,06,29,10,10,24.20
2008,06,29,10,11,24.20
2008,06,29,10,12,24.20
2008,06,29,10,13,24.20
2008,06,29,10,14,24.30
2008,06,29,10,15,24.30
2008,06,29,10,16,24.20
2008,06,29,10,17,24.30
2008,06,29,10,18,24.30
2008,06,29,10,19,24.30
2008,06,29,10,20,24.30
2008,06,29,10,21,24.40
2008,06,29,10,22,24.40
2008,06,29,10,23,24.40
2008,06,29,10,24,24.30
2008,06,29,10,25,24.30
2008,06,29,10,26,24.40
2008,06,29,10,27,24.40
2008,06,29,10,28,24.50
2008,06,29,10,29,24.50
2008,06,29,10,30,24.40
2008,06,29,10,31,24.40
2008,06,29,10,32,24.30
2008,06,29,10,33,24.40
2008,06,29,10,34,24.50
2008,06,29,10,35,24.50
2008,06,29,10,36,24.50
2008,06,29,10,37,24.50
2008,06,29,10,38,24.50
2008,06,29,10,39,24.50
2008,06,29,10,40,24.50
2008,06,29,10,41,24.60
2008,06,29,10,42,24.70
2008,06,29,10,43,24.80
2008,06,29,10,44,24.90
2008,06,29,10,45,24.80
2008,06,29,10,46,24.80
2008,06,29,10,47,24.80
2008,06,29,10,48,24.90
2008,06,29,10,49,24.90
2008,06,29,10,50,24.90
2008,06,29,10,51,24.90
2008,06,29,10,52,24.80
2008,06,29,10,53,24.80
2008,06,29,10,54,24.80
2008,06,29,10,55,24.90
2008,06,29,10,56,24.90
2008,06,29,10,57,25.10
2008,06,29,10,58,25.20
2008,06,29,10,59,25.30
2008,06,29,11,00,25.40
2008,06,29,11,01,25.40
2008,06,29,11,02,25.40
2008,06,29,11,03,25.40
2008,06,29,11,04,25.30
2008,06,29,11,05,25.30
2008,06,29,11,06,25.20
2008,06,29,11,07,25.10
2008,06,29,11,08,25.10
2008,06,29,11,09,25.10
2008,06,29,11,10,25.10
2008,06,29,11,11,25.10
2008,06,29,11,12,25.10
2008,06,29,11,13,25.20
2008,06,29,11,14,25.20
2008,06,29,11,15,25.20
2008,06,29,11,16,25.20
2008,06,29,11,17,25.20
2008,06,29,11,18,25.20
2008,06,29,11,19,25.20
2008,06,29,11,20,25.20
2008,06,29,11,21,25.30
2008,06,29,11,22,25.40
2008,06,29,11,23,25.40
2008,06,29,11,24,25.40
2008,06,29,11,25,25.40
2008,06,29,11,26,25.40
2008,06,29,11,27,25.40
2008,06,29,11,28,25.50
2008,06,29,11,29,25.50
2008,06,29,11,30,25.60
2008,06,29,11,31,25.60
2008,06,29,11,32,25.70
2008,06,29,11,33,25.80
2008,06,29,11,34,25.90
2008,06,29,11,35,26.00
2008,06,29,11,36,26.00
2008,06,29,11,37,26.10
2008,06,29,11,38,26.10
2008,06,29,11,39,26.00
2008,06,29,11,40,26.00
2008,06,29,11,41,26.00
2008,06,29,11,42,26.00
2008,06,29,11,43,26.00
2008,06,29,11,44,26.10
2008,06,29,11,45,26.20
2008,06,29,11,46,26.20
2008,06,29,11,47,26.30
2008,06,29,11,48,26.40
2008,06,29,11,49,26.30
2008,06,29,11,50,26.20
2008,06,29,11,51,26.10
2008,06,29,11,52,26.10
2008,06,29,11,53,26.10
2008,06,29,11,54,26.20
2008,06,29,11,55,26.20
2008,06,29,11,56,26.20
2008,06,29,11,57,26.20
2008,06,29,11,58,26.20
2008,06,29,11,59,26.30
2008,06,29,12,00,26.40
2008,06,29,12,01,26.40
2008,06,29,12,02,26.60
2008,06,29,12,03,26.50
2008,06,29,12,04,26.50
2008,06,29,12,05,26.60
2008,06,29,12,06,26.60
2008,06,29,12,07,26.60
2008,06,29,12,08,26.70
2008,06,29,12,09,26.80
2008,06,29,12,10,26.70
2008,06,29,12,11,26.70
2008,06,29,12,12,26.70
2008,06,29,12,13,26.60
2008,06,29,12,14,26.60
2008,06,29,12,15,26.60
2008,06,29,12,16,26.50
2008,06,29,12,17,26.60
2008,06,29,12,18,26.60
2008,06,29,12,19,26.60
2008,06,29,12,20,26.60
2008,06,29,12,21,26.60
2008,06,29,12,22,26.70
2008,06,29,12,23,26.70
2008,06,29,12,24,26.80
2008,06,29,12,25,26.80
2008,06,29,12,26,26.80
2008,06,29,12,27,26.90
2008,06,29,12,28,26.90
2008,06,29,12,29,26.90
2008,06,29,12,30,26.90
2008,06,29,12,31,26.80
2008,06,29,12,32,26.70
2008,06,29,12,33,26.70
2008,06,29,12,34,26.70
2008,06,29,12,35,26.60
2008,06,29,12,36,26.60
2008,06,29,12,37,26.60
2008,06,29,12,38,26.60
2008,06,29,12,39,26.60
2008,06,29,12,40,26.60
2008,06,29,12,41,26.60
2008,06,29,12,42,26.60
2008,06,29,12,43,26.80
2008,06,29,12,44,26.80
2008,06,29,12,45,26.90
2008,06,29,12,46,26.90
2008,06,29,12,47,26.90
2008,06,29,12,48,27.00
2008,06,29,12,49,27.10
2008,06,29,12,50,27.10
2008,06,29,12,51,27.10
2008,06,29,12,52,27.10
2008,06,29,12,53,27.20
2008,06,29,12,54,27.20
2008,06,29,12,55,27.20
2008,06,29,12,56,27.20
2008,06,29,12,57,27.20
2008,06,29,12,58,27.30
2008,06,29,12,59,27.30
2008,06,29,13,00,27.30
2008,06,29,13,01,27.30
2008,06,29,13,02,27.30
2008,06,29,13,03,27.30
2008,06,29,13,04,27.30
2008,06,29,13,05,27.30
2008,06,29,13,06,27.30
2008,06,29,13,07,27.30
2008,06,29,13,08,27.30
2008,06,29,13,09,27.30
2008,06,29,13,10,27.30
2008,06,29,13,11,27.30
2008,06,29,13,12,27.30
2008,06,29,13,13,27.30
2008,06,29,13,14,27.30
2008,06,29,13,15,27.30
2008,06,29,13,16,27.30
2008,06,29,13,17,27.40
2008,06,29,13,18,27.40
2008,06,29,13,19,27.40
2008,06,29,13,20,27.40
2008,06,29,13,21,27.40
2008,06,29,13,22,27.40
2008,06,29,13,23,27.40
2008,06,29,13,24,27.40
2008,06,29,13,25,27.50
2008,06,29,13,26,27.60
2008,06,29,13,27,27.70
2008,06,29,13,28,27.80
2008,06,29,13,29,27.90
2008,06,29,13,30,28.00
2008,06,29,13,31,28.20
2008,06,29,13,32,28.30
2008,06,29,13,33,28.50
2008,06,29,13,34,28.70
2008,06,29,13,35,28.80
2008,06,29,13,36,28.80
2008,06,29,13,37,28.70
2008,06,29,13,38,28.70
2008,06,29,13,39,28.80
2008,06,29,13,40,28.80
2008,06,29,13,41,28.90
2008,06,29,13,42,28.80
2008,06,29,13,43,28.70
2008,06,29,13,44,28.70
2008,06,29,13,45,28.70
2008,06,29,13,46,28.60
2008,06,29,13,47,28.70
2008,06,29,13,48,28.70
2008,06,29,13,49,28.70
2008,06,29,13,50,28.70
2008,06,29,13,51,28.70
2008,06,29,13,52,28.70
2008,06,29,13,53,28.80
2008,06,29,13,54,28.80
2008,06,29,13,55,28.80
2008,06,29,13,56,28.90
2008,06,29,13,57,28.90
2008,06,29,13,58,28.90
2008,06,29,13,59,28.90
2008,06,29,14,00,29.00
2008,06,29,14,01,29.10
2008,06,29,14,02,29.00
2008,06,29,14,03,28.60
2008,06,29,14,04,27.90
2008,06,29,14,05,27.30
2008,06,29,14,06,26.90
2008,06,29,14,07,26.60
2008,06,29,14,08,26.40
2008,06,29,14,09,26.10
2008,06,29,14,10,25.80
2008,06,29,14,11,25.70
2008,06,29,14,12,25.40
2008,06,29,14,13,25.20
2008,06,29,14,14,24.80
2008,06,29,14,15,24.50
2008,06,29,14,16,24.10
2008,06,29,14,17,23.90
2008,06,29,14,18,23.70
2008,06,29,14,19,23.60
2008,06,29,14,20,23.60
2008,06,29,14,21,23.60
2008,06,29,14,22,23.60
2008,06,29,14,23,23.40
2008,06,29,14,24,23.30
2008,06,29,14,25,23.10
2008,06,29,14,26,23.00
2008,06,29,14,27,23.00
2008,06,29,14,28,23.10
2008,06,29,14,29,23.20
2008,06,29,14,30,23.20
2008,06,29,14,31,23.30
2008,06,29,14,32,23.30
2008,06,29,14,33,23.30
2008,06,29,14,34,23.30
2008,06,29,14,35,23.20
2008,06,29,14,36,23.10
2008,06,29,14,37,23.10
2008,06,29,14,38,23.00
2008,06,29,14,39,22.90
2008,06,29,14,40,22.90
2008,06,29,14,41,22.90
2008,06,29,14,42,22.80
2008,06,29,14,43,22.80
2008,06,29,14,44,22.80
2008,06,29,14,45,22.80
2008,06,29,14,46,22.80
2008,06,29,14,47,22.80
2008,06,29,14,48,22.90
2008,06,29,14,49,23.10
2008,06,29,14,50,23.20
2008,06,29,14,51,23.30
2008,06,29,14,52,23.30
2008,06,29,14,53,23.30
2008,06,29,14,54,23.30
2008,06,29,14,55,23.30
2008,06,29,14,56,23.30
2008,06,29,14,57,23.40
2008,06,29,14,58,23.60
2008,06,29,14,59,23.70
2008,06,29,15,00,23.90
2008,06,29,15,01,24.00
2008,06,29,15,02,24.10
2008,06,29,15,03,24.10
2008,06,29,15,04,24.10
2008,06,29,15,05,24.10
2008,06,29,15,06,24.10
2008,06,29,15,07,24.00
2008,06,29,15,08,23.90
2008,06,29,15,09,23.90
2008,06,29,15,10,24.00
2008,06,29,15,11,24.10
2008,06,29,15,12,24.10
2008,06,29,15,13,24.10
2008,06,29,15,14,24.10
2008,06,29,15,15,24.20
2008,06,29,15,16,24.30
2008,06,29,15,17,24.30
2008,06,29,15,18,24.30
2008,06,29,15,19,24.40
2008,06,29,15,20,24.50
2008,06,29,15,21,24.40
2008,06,29,15,22,24.40
2008,06,29,15,23,24.50
2008,06,29,15,24,24.60
2008,06,29,15,25,24.60
2008,06,29,15,26,24.50
2008,06,29,15,27,24.60
2008,06,29,15,28,24.70
2008,06,29,15,29,24.70
2008,06,29,15,30,24.80
2008,06,29,15,31,24.80
2008,06,29,15,32,24.70
2008,06,29,15,33,24.60
2008,06,29,15,34,24.60
2008,06,29,15,35,24.40
2008,06,29,15,36,24.30
2008,06,29,15,37,24.40
2008,06,29,15,38,24.40
2008,06,29,15,39,24.40
2008,06,29,15,40,24.40
2008,06,29,15,41,24.30
2008,06,29,15,42,24.30
2008,06,29,15,43,24.40
2008,06,29,15,44,24.40
2008,06,29,15,45,24.40
2008,06,29,15,46,24.40
2008,06,29,15,47,24.50
2008,06,29,15,48,24.60
2008,06,29,15,49,24.60
2008,06,29,15,50,24.50
2008,06,29,15,51,24.30
2008,06,29,15,52,24.10
2008,06,29,15,53,24.10
2008,06,29,15,54,24.10
2008,06,29,15,55,24.10
2008,06,29,15,56,24.10
2008,06,29,15,57,24.20
2008,06,29,15,58,24.30
2008,06,29,15,59,24.30
2008,06,29,16,00,24.40
2008,06,29,16,01,24.40
2008,06,29,16,02,24.50
2008,06,29,16,03,24.50
2008,06,29,16,04,24.50
2008,06,29,16,05,24.50
2008,06,29,16,06,24.40
2008,06,29,16,07,24.30
2008,06,29,16,08,24.30
2008,06,29,16,09,24.30
2008,06,29,16,10,24.30
2008,06,29,16,11,24.30
2008,06,29,16,12,24.30
2008,06,29,16,13,24.20
2008,06,29,16,14,24.30
2008,06,29,16,15,24.40
2008,06,29,16,16,24.50
2008,06,29,16,17,24.60
2008,06,29,16,18,24.70
2008,06,29,16,19,24.70
2008,06,29,16,20,24.70
2008,06,29,16,21,24.60
2008,06,29,16,22,24.50
2008,06,29,16,23,24.50
2008,06,29,16,24,24.50
2008,06,29,16,25,24.40
2008,06,29,16,26,24.30
2008,06,29,16,27,24.30
2008,06,29,16,28,24.20
2008,06,29,16,29,24.20
2008,06,29,16,30,24.20
2008,06,29,16,31,24.20
2008,06,29,16,32,24.20
2008,06,29,16,33,24.20
2008,06,29,16,34,24.20
2008,06,29,16,35,24.10
2008,06,29,16,36,24.10
2008,06,29,16,37,24.10
2008,06,29,16,38,24.10
2008,06,29,16,39,24.20
2008,06,29,16,40,24.30
2008,06,29,16,41,24.20
2008,06,29,16,42,24.10
2008,06,29,16,43,24.10
2008,06,29,16,44,24.10
2008,06,29,16,45,24.10
2008,06,29,16,46,24.20
2008,06,29,16,47,24.30
2008,06,29,16,48,24.40
2008,06,29,16,49,24.40
2008,06,29,16,50,24.40
2008,06,29,16,51,24.50
2008,06,29,16,52,24.60
2008,06,29,16,53,24.60
2008,06,29,16,54,24.50
2008,06,29,16,55,24.50
2008,06,29,16,56,24.50
2008,06,29,16,57,24.50
2008,06,29,16,58,24.50
2008,06,29,16,59,24.50
2008,06,29,17,00,24.60
2008,06,29,17,01,24.70
2008,06,29,17,02,24.80
2008,06,29,17,03,24.90
2008,06,29,17,04,24.90
2008,06,29,17,05,25.00
2008,06,29,17,06,25.10
2008,06,29,17,07,25.20
2008,06,29,17,08,25.20
2008,06,29,17,09,25.30
2008,06,29,17,10,25.30
2008,06,29,17,11,25.30
2008,06,29,17,12,25.30
2008,06,29,17,13,25.30
2008,06,29,17,14,25.20
2008,06,29,17,15,25.20
2008,06,29,17,16,25.30
2008,06,29,17,17,25.40
2008,06,29,17,18,25.40
2008,06,29,17,19,25.40